Weather History for KCQX - January, 2013

Change the Weather History Date:

Tuesday, January 22, 2013

  Actual Average Record
Temperature  
Mean Temperature 23 °F -  
Max Temperature 28 °F 33 °F 49 °F (1987)
Min Temperature 17 °F 21 °F -1 °F (1976)
Degree Days  
Heating Degree Days 42    
Moisture  
Dew Point 17 °F    
Average Humidity 74    
Maximum Humidity 93    
Minimum Humidity 35    
Precipitation  
Precipitation 0.11 in - - ()
Sea Level Pressure  
Sea Level Pressure 29.81 in    
Wind  
Wind Speed 5 mph (WNW)    
Max Wind Speed 13 mph    
Max Gust Speed 25 mph    
Visibility 6 miles    
Events Snow    
Averages and records for this station are not official NWS values.
T = Trace of Precipitation, MM = Missing Value Source: NWS Daily Summary

Daily Weather History Graph

Daily Weather History Graph

Search for Another Location

Airport or City:

Trip Planner

Search our weather history database for the weather conditions in past years. The results will help you decide how hot, cold, wet, or windy it might be!

Date:

Astronomy

Jan. 22, 2013 Rise Set
Actual Time 7:00 AM EST 4:43 PM EST
Civil Twilight 6:30 AM EST 5:13 PM EST
Nautical Twilight 5:56 AM EST 5:47 PM EST
Astronomical Twilight 5:23 AM EST 6:20 PM EST
Moon 1:03 PM EST (1/22) 3:19 AM EST (1/22)
Length of Visible Light 10h 43m
Length of Day
9h 42m
Waxing Gibbous, 82% of the Moon is Illuminated
Jan 22
Waxing Gibbous
Jan 26
Full
Feb 3
Last Quarter
Feb 10
New
Feb 17
First Quarter

Hourly Weather History & Observations

Time (EST) Temp. Windchill Dew Point Humidity Pressure Visibility Wind Dir Wind Speed Gust Speed Precip Events Conditions
12:25 AM 28.4 °F 24.6 °F 26.6 °F 93% 29.74 in 2.5 mi NNW 3.5 mph - 0.00 in Snow Light Snow
12:35 AM 28.4 °F 24.6 °F 26.6 °F 93% 29.73 in 1.2 mi Variable 3.5 mph - 0.00 in Snow Light Snow
12:52 AM 28.9 °F 25.2 °F 27.0 °F 92% 29.74 in 2.0 mi Variable 3.5 mph - 0.01 in Snow Light Snow
1:14 AM 28.4 °F - 26.6 °F 93% 29.74 in 1.8 mi Calm Calm - 0.00 in Snow Light Snow
1:34 AM 28.4 °F - 26.6 °F 93% 29.75 in 1.0 mi Calm Calm - 0.01 in Snow Light Snow
1:42 AM 28.4 °F 24.6 °F 26.6 °F 93% 29.74 in 1.5 mi Variable 3.5 mph - 0.01 in Snow Light Snow
1:52 AM 28.9 °F 25.2 °F 26.1 °F 89% 29.75 in 0.8 mi NNW 3.5 mph - 0.02 in Snow Light Snow
2:02 AM 28.4 °F 23.3 °F 26.6 °F 93% 29.75 in 1.0 mi Variable 4.6 mph - 0.00 in Snow Light Snow
2:11 AM 28.4 °F 24.6 °F 26.6 °F 93% 29.75 in 0.8 mi Variable 3.5 mph - 0.01 in Snow Light Snow
2:21 AM 28.4 °F 24.6 °F 26.6 °F 93% 29.75 in 1.0 mi Variable 3.5 mph - 0.02 in Snow Light Snow
2:33 AM 28.4 °F 23.3 °F 26.6 °F 93% 29.74 in 0.8 mi Variable 4.6 mph - 0.03 in Snow Light Snow
2:41 AM 28.4 °F - 26.6 °F 93% 29.74 in 1.0 mi Calm Calm - 0.03 in Snow Light Snow
2:52 AM 28.0 °F 22.8 °F 26.1 °F 92% 29.74 in 1.0 mi Variable 4.6 mph - 0.04 in Snow Light Snow
3:50 AM 28.4 °F 24.6 °F 26.6 °F 93% 29.71 in 1.5 mi NW 3.5 mph - 0.02 in Snow Light Snow
3:52 AM 28.0 °F 24.2 °F 26.1 °F 92% 29.72 in 1.8 mi WNW 3.5 mph - 0.02 in Snow Light Snow
4:33 AM 28.4 °F 21.2 °F 24.8 °F 86% 29.71 in 1.5 mi WNW 6.9 mph - 0.01 in Snow Light Snow
4:40 AM 28.4 °F 21.2 °F 24.8 °F 86% 29.71 in 1.5 mi WNW 6.9 mph - 0.01 in Snow Light Snow
4:47 AM 28.4 °F 24.6 °F 24.8 °F 86% 29.71 in 2.0 mi WNW 3.5 mph - 0.02 in Snow Light Snow
4:52 AM 28.0 °F 20.8 °F 26.1 °F 92% 29.72 in 2.0 mi Variable 6.9 mph - 0.02 in Snow Light Snow
5:14 AM 26.6 °F 18.2 °F 24.8 °F 93% 29.71 in 7.0 mi WNW 8.1 mph - 0.00 in Snow Light Snow
5:38 AM 26.6 °F 20.0 °F 23.0 °F 86% 29.72 in 10.0 mi WNW 5.8 mph - 0.00 in   Overcast
5:52 AM 25.0 °F 17.1 °F 21.9 °F 88% 29.74 in 10.0 mi WNW 6.9 mph - 0.00 in   Scattered Clouds
6:16 AM 24.8 °F 16.9 °F 21.2 °F 86% 29.73 in 10.0 mi West 6.9 mph - N/A   Mostly Cloudy
6:25 AM 24.8 °F 16.1 °F 21.2 °F 86% 29.74 in 10.0 mi West 8.1 mph - N/A   Mostly Cloudy
6:52 AM 24.1 °F 16.0 °F 18.0 °F 77% 29.76 in 10.0 mi West 6.9 mph - N/A   Overcast
7:44 AM 24.8 °F 14.6 °F 19.4 °F 80% 29.77 in 1.8 mi West 10.4 mph 19.6 mph 0.00 in Snow Light Snow
7:52 AM 24.1 °F 12.5 °F 19.0 °F 81% 29.78 in 2.0 mi WNW 12.7 mph 20.7 mph 0.00 in Snow Light Snow
7:59 AM 24.8 °F 15.3 °F 19.4 °F 80% 29.77 in 9.0 mi WNW 9.2 mph 21.9 mph 0.00 in   Mostly Cloudy
8:52 AM 26.1 °F 16.2 °F 18.0 °F 71% 29.81 in 10.0 mi WNW 10.4 mph 19.6 mph 0.00 in   Mostly Cloudy
9:16 AM 24.8 °F 13.4 °F 15.8 °F 69% 29.81 in 8.0 mi WNW 12.7 mph 23.0 mph N/A   Scattered Clouds
9:52 AM 25.0 °F 13.6 °F 15.1 °F 66% 29.83 in 9.0 mi WNW 12.7 mph 25.3 mph 0.00 in   Clear
10:52 AM 26.1 °F 15.0 °F 14.0 °F 60% 29.83 in 10.0 mi NW 12.7 mph 24.2 mph 0.00 in   Scattered Clouds
11:52 AM 26.1 °F 16.2 °F 10.9 °F 53% 29.85 in 10.0 mi WNW 10.4 mph 24.2 mph N/A   Unknown
12:52 PM 27.0 °F 16.7 °F 9.0 °F 47% 29.84 in 10.0 mi West 11.5 mph 23.0 mph N/A   Overcast
1:52 PM 26.1 °F 16.8 °F 3.9 °F 39% 29.86 in 10.0 mi WNW 9.2 mph 19.6 mph N/A   Partly Cloudy
2:52 PM 26.1 °F 16.2 °F 1.9 °F 35% 29.87 in 10.0 mi West 10.4 mph 18.4 mph N/A   Partly Cloudy
3:52 PM 23.0 °F 13.1 °F -0.0 °F 37% 29.89 in 10.0 mi West 9.2 mph 17.3 mph N/A   Clear
4:52 PM 23.0 °F 14.7 °F 1.0 °F 39% 29.93 in 10.0 mi Variable 6.9 mph - N/A   Mostly Cloudy
5:52 PM 21.0 °F 14.6 °F -0.0 °F 40% 29.96 in 10.0 mi West 4.6 mph - N/A   Overcast
6:52 PM 19.9 °F 12.1 °F 1.0 °F 44% 29.99 in 10.0 mi West 5.8 mph - N/A   Mostly Cloudy
7:52 PM 19.9 °F 9.3 °F -0.0 °F 42% 30.01 in 10.0 mi West 9.2 mph - N/A   Scattered Clouds
8:52 PM 19.0 °F 9.0 °F -0.0 °F 43% 30.02 in 10.0 mi West 8.1 mph - N/A   Clear
9:52 PM 19.0 °F 7.5 °F -0.0 °F 43% 30.04 in 10.0 mi WNW 10.4 mph 19.6 mph N/A   Clear
10:52 PM 18.0 °F 6.9 °F -0.0 °F 45% 30.06 in 10.0 mi WNW 9.2 mph 17.3 mph N/A   Clear
11:52 PM 17.1 °F 10.0 °F 1.9 °F 52% 30.06 in 10.0 mi West 4.6 mph - N/A   Partly Cloudy